[[{"header":{"parameterUnit":"m.s-1","parameterCategory":1,"la1":30.2991,"la2":30.254,"lo1":-89.0895,"lo2":-89.0444,"dy":0.0017,"dx":0.0017,"nx":28,"ny":28,"refTime":"2024-07-01T09:00:00:Z","depth":0,"parameterNumber":2,"parameterNumberName":"U-component_of_WINDS"},"data":[0,0,0,0,0,0,0,0,0,0,0,0,0,0,0,0,0,0,0,0,0,0,0,0,0,0,0,0,0,0,0,0,0,0,0,0,0,0,0,0,0,0,0,0,0,0,0,0,0,0,0,0,0,0,0,0,0,0,0.8398,0.8399,0,0.8523,0.8524,0.8526,0.8558,0.8557,0.8556,0.8556,0.8684,0.8688,0.8692,0,0,0,0,0,0,0,0,0,0,0,0,0,0.8187,0.819,0.8398,0.84,0.8401,0.8522,0.8524,0.8526,0.8558,0.8557,0.8556,0.8555,0.8683,0.8688,0.8693,0,0,0,0,0,0,0,0,0,0,0,0,0,0.8292,0.8192,0.8398,0.8432,0.8436,0.8522,0.8524,0.8526,0.8558,0.8557,0.8556,0.8555,0.8681,0.8687,0.8693,0.8755,0,0,0.8712,0.8715,0,0,0,0,0,0,0,0,0.8286,0.8299,0.8425,0.843,0.8435,0.8524,0.8497,0.8603,0.8559,0.8512,0.8556,0.8554,0.8632,0.8642,0.8668,0.8761,0.8766,0.8713,0.8717,0.8719,0.8721,0,0,0,0,0,0,0,0.8278,0.8294,0.8447,0.8427,0.8433,0.844,0.8454,0.8517,0.8577,0.8516,0.8519,0.8533,0.8634,0.8662,0.8671,0.8768,0.8713,0.8718,0.8722,0.8724,0.8915,0.8916,0,0,0,0,0,0,0.8265,0.8288,0.8443,0.8451,0.8356,0.8445,0.846,0.8496,0.8576,0.8587,0.8534,0.8534,0.8652,0.8664,0.8676,0.8751,0.8719,0.8725,0.8729,0.8913,0.8915,0.8916,0,0,0,0,0,0,0.8261,0.8279,0.8438,0.837,0.8391,0.845,0.849,0.8499,0.8527,0.859,0.86,0.8551,0.8651,0.8667,0.8734,0.8756,0.8728,0.8733,0.8912,0.8914,0.8916,0.8903,0,0,0,0,0,0,0.8254,0.8277,0.8301,0.8371,0.8395,0.8495,0.8491,0.8503,0.8538,0.8539,0.8609,0.8619,0.8652,0.8725,0.874,0.8764,0.8738,0.891,0.8913,0.8915,0.8902,0.8905,0.8907,0,0,0,0,0,0.8247,0.8293,0.8302,0.8321,0.8426,0.8496,0.851,0.8546,0.8539,0.8564,0.8603,0.8617,0.8751,0.8731,0.8749,0.8775,0.8909,0.8912,0.8915,0.8901,0.8904,0.8907,0,0,0,0,0,0,0.8226,0.8303,0.8314,0.8384,0.8433,0.8501,0.8534,0.8549,0.8601,0.86,0.8643,0.8658,0.8722,0.8756,0.8732,0.8837,0.883,0.8837,0.8813,0.8817,0.8819,0.8809,0.8743,0,0,0,0,0,0.8229,0.828,0.8345,0.84,0.8424,0.8475,0.8506,0.853,0.8582,0.8603,0.8648,0.8699,0.8752,0.8786,0.8839,0.8907,0.8922,0.8933,0.8936,0.8937,0.8943,0.8979,0.8984,0.8926,0.8926,0.8926,0,0,0.8237,0.8286,0.8315,0.8397,0.8438,0.8489,0.8492,0.8546,0.8584,0.8612,0.8677,0.8712,0.8771,0.8838,0.887,0.8868,0.8962,0.8941,0.8942,0.8947,0.8982,0.8988,0.8993,0.8928,0.8928,0.8928,0,0,0.8277,0.832,0.837,0.841,0.8471,0.8504,0.8516,0.8582,0.8605,0.8671,0.8693,0.8738,0.883,0.887,0.8903,0.8955,0.8969,0.8972,0.8984,0.9019,0.9023,0.9028,0.9045,0.9051,0.8977,0.8977,0.8977,0,0.8279,0.8357,0.8394,0.8446,0.8481,0.8508,0.8558,0.8596,0.8671,0.8694,0.8691,0.8804,0.8846,0.8922,0.8934,0.8961,0.8975,0.8964,0.902,0.9024,0.9029,0.9046,0.9053,0.8976,0.8976,0.8976,0.8976,0,0.8355,0.8409,0.8442,0.8513,0.8552,0.8603,0.8647,0.8681,0.8701,0.8733,0.88,0.885,0.8913,0.8933,0.8953,0.9011,0.9007,0.9011,0.9005,0.9034,0.905,0.9057,0.8976,0.8976,0.8976,0.8976,0,0,0.8387,0.8476,0.8488,0.8519,0.8588,0.863,0.8681,0.8742,0.877,0.882,0.8864,0.8939,0.8943,0.8979,0.9004,0.9035,0.9071,0.9035,0.9037,0.9039,0.9136,0.9132,0.9139,0.9081,0.9082,0.9083,0.9131,0,0.8434,0.8528,0.8562,0.8638,0.8687,0.8712,0.8757,0.8803,0.8834,0.888,0.8915,0.8967,0.8968,0.899,0.9022,0.906,0.9091,0.9057,0.9121,0.9123,0.9104,0.9148,0.9145,0.9187,0.9138,0.9139,0.914,0,0.8503,0.8553,0.8634,0.8695,0.8716,0.8756,0.8813,0.8856,0.8909,0.8929,0.8969,0.8991,0.9045,0.9035,0.9109,0.9085,0.9113,0.9135,0.9138,0.9145,0.9133,0.9155,0.9202,0.9208,0.9151,0.915,0.9149,0,0.8516,0.8604,0.8663,0.869,0.8762,0.8789,0.8821,0.8872,0.8905,0.8955,0.8977,0.9032,0.9062,0.9104,0.914,0.913,0.921,0.9204,0.9228,0.9227,0.9244,0.9242,0.9295,0.9263,0.9263,0.9263,0.9263,0,0.8565,0.8613,0.867,0.8706,0.876,0.8798,0.8851,0.8884,0.8929,0.8971,0.8997,0.9036,0.9081,0.9126,0.9155,0.921,0.9224,0.9242,0.9249,0.9239,0.9237,0.9258,0.9255,0.9265,0.9264,0.9264,0.9264,0,0.8589,0.8629,0.8695,0.8757,0.8774,0.8811,0.8864,0.89,0.8932,0.8985,0.9,0.905,0.9104,0.9144,0.9214,0.9233,0.9292,0.93,0.9275,0.9278,0.93,0.9296,0.9367,0.9377,0.9339,0.9339,0.934,0,0.8617,0.8655,0.8721,0.8751,0.8782,0.8831,0.8864,0.8903,0.8937,0.8998,0.9026,0.9081,0.9128,0.9212,0.9255,0.9308,0.9316,0.9337,0.9325,0.9313,0.9315,0.9312,0.9315,0.9339,0.9339,0.9339,0.9339,0,0.8663,0.868,0.8728,0.8782,0.8822,0.8866,0.8911,0.8935,0.8981,0.9017,0.9072,0.9108,0.9179,0.9233,0.929,0.9322,0.9338,0.9343,0.9351,0.9342,0.9325,0.9333,0.9278,0.9341,0.9341,0.9341,0.9341,0.9341,0.8689,0.8723,0.8774,0.8826,0.8864,0.8905,0.8941,0.8976,0.9023,0.9083,0.9103,0.9159,0.9209,0.9287,0.9319,0.9363,0.9363,0.9375,0.9378,0.938,0.9379,0.9318,0.9374,0.9374,0.9374,0.9374,0.9374,0,0.8735,0.8769,0.8816,0.8878,0.8918,0.8929,0.8979,0.9012,0.9061,0.9106,0.9151,0.9213,0.9265,0.9311,0.9365,0.9391,0.94,0.9404,0.9402,0.9409,0.9377,0.9364,0.9396,0.9396,0.9396,0.9396,0.9396,0.9396,0.8764,0.8821,0.8844,0.8919,0.8953,0.9008,0.9035,0.9073,0.9109,0.9177,0.922,0.9249,0.9294,0.9351,0.9399,0.9411,0.9429,0.9431,0.9445,0.9414,0.9411,0.9409,0.9397,0.9435,0.9435,0.9473,0.9474,0.9474]},{"header":{"parameterUnit":"m.s-1","parameterCategory":1,"la1":30.2991,"la2":30.254,"lo1":-89.0895,"lo2":-89.0444,"dy":0.0017,"dx":0.0017,"nx":28,"ny":28,"refTime":"2024-07-01T09:00:00:Z","depth":0,"parameterNumber":3,"parameterNumberName":"V-component_of_WINDS"},"data":[0,0,0,0,0,0,0,0,0,0,0,0,0,0,0,0,0,0,0,0,0,0,0,0,0,0,0,0,0,0,0,0,0,0,0,0,0,0,0,0,0,0,0,0,0,0,0,0,0,0,0,0,0,0,0,0,0,0,5.2029,5.2029,0,5.1987,5.1987,5.1986,5.1936,5.1935,5.1935,5.1934,5.1889,5.1888,5.1888,0,0,0,0,0,0,0,0,0,0,0,0,0,5.2065,5.2065,5.2029,5.2029,5.2028,5.1987,5.1987,5.1986,5.1936,5.1935,5.1934,5.1934,5.1889,5.1888,5.1888,0,0,0,0,0,0,0,0,0,0,0,0,0,5.2039,5.2065,5.203,5.1999,5.1995,5.1988,5.1987,5.1986,5.1937,5.1935,5.1934,5.1933,5.1889,5.1888,5.1888,5.1906,0,0,5.1885,5.1885,0,0,0,0,0,0,0,0,5.2041,5.2038,5.2004,5.2001,5.1997,5.1966,5.1983,5.1959,5.1937,5.1959,5.1934,5.1933,5.1915,5.1912,5.1907,5.1904,5.1902,5.1885,5.1885,5.1884,5.1884,0,0,0,0,0,0,0,5.2043,5.2039,5.2013,5.2003,5.1999,5.1986,5.1981,5.1978,5.1944,5.1957,5.1953,5.1949,5.1913,5.1908,5.1905,5.1901,5.1885,5.1885,5.1884,5.1884,5.1911,5.1913,0,0,0,0,0,0,5.2049,5.2041,5.2014,5.2011,5.2017,5.1987,5.1981,5.1977,5.1944,5.1938,5.195,5.1947,5.1909,5.1906,5.1903,5.1923,5.1884,5.1884,5.1883,5.191,5.1912,5.1913,0,0,0,0,0,0,5.205,5.2047,5.2016,5.2025,5.202,5.1987,5.1983,5.1977,5.1971,5.1939,5.1932,5.1951,5.1908,5.1904,5.1906,5.1921,5.1883,5.1883,5.1909,5.1911,5.1912,5.1962,0,0,0,0,0,0,5.2051,5.2048,5.2055,5.2026,5.202,5.202,5.1984,5.1977,5.197,5.1966,5.1938,5.1932,5.1907,5.1907,5.1905,5.1919,5.1882,5.1907,5.191,5.1912,5.1959,5.1965,5.1971,0,0,0,0,0,5.2053,5.207,5.2055,5.2052,5.2028,5.202,5.2017,5.1989,5.1972,5.1978,5.1957,5.1933,5.192,5.1908,5.1905,5.1919,5.1906,5.1909,5.1912,5.1956,5.1964,5.1971,0,0,0,0,0,0,5.2101,5.2066,5.2049,5.2057,5.2043,5.2012,5.2019,5.1998,5.1987,5.1983,5.1948,5.1942,5.1948,5.1933,5.1921,5.1935,5.1909,5.1912,5.1944,5.1951,5.1957,5.196,5.1881,0,0,0,0,0,5.2112,5.211,5.2079,5.2089,5.2083,5.2053,5.2048,5.2028,5.2011,5.2004,5.1983,5.1967,5.1959,5.1954,5.1945,5.1957,5.195,5.1965,5.1971,5.1976,5.1978,5.1983,5.199,5.1922,5.1922,5.1922,0,0,5.2136,5.2117,5.2117,5.2098,5.2084,5.2082,5.2047,5.2046,5.2044,5.2003,5.2004,5.1988,5.1967,5.1974,5.1976,5.1962,5.1995,5.1979,5.1984,5.1983,5.1987,5.1993,5.1999,5.1923,5.1923,5.1923,0,0,5.2178,5.2163,5.217,5.2157,5.2137,5.2117,5.2119,5.2092,5.208,5.208,5.205,5.2046,5.2034,5.202,5.2012,5.205,5.2027,5.2048,5.2079,5.2084,5.209,5.2094,5.2108,5.2113,5.205,5.2051,5.2051,0,5.221,5.2206,5.2176,5.2177,5.217,5.2135,5.2141,5.213,5.2107,5.2103,5.2088,5.2072,5.2055,5.2059,5.2068,5.2063,5.2063,5.2051,5.2091,5.2096,5.21,5.2112,5.2117,5.2053,5.2053,5.2053,5.2052,0,5.2246,5.2243,5.2251,5.2232,5.2225,5.2229,5.22,5.2197,5.2178,5.216,5.216,5.214,5.2126,5.2125,5.2106,5.2126,5.2118,5.2098,5.2071,5.2109,5.2121,5.2125,5.2057,5.2056,5.2055,5.2055,0,0,5.2316,5.2281,5.2284,5.2275,5.225,5.2248,5.225,5.2238,5.2236,5.2222,5.2222,5.2213,5.2195,5.2185,5.2164,5.2169,5.2201,5.2148,5.2147,5.2159,5.2222,5.2237,5.2243,5.2186,5.2186,5.2187,5.2224,0,5.2353,5.2356,5.233,5.2339,5.2337,5.2303,5.2305,5.229,5.2273,5.2268,5.2249,5.2243,5.2219,5.2213,5.2217,5.2196,5.2213,5.2193,5.2186,5.2186,5.2192,5.2249,5.2265,5.23,5.2228,5.2228,5.2229,0,5.2397,5.2386,5.2396,5.2371,5.2369,5.2371,5.2358,5.2354,5.2336,5.2324,5.2314,5.229,5.2291,5.2266,5.2266,5.2253,5.2248,5.2238,5.2239,5.2236,5.221,5.2248,5.2311,5.2316,5.2236,5.2235,5.2235,0,5.2447,5.2435,5.2439,5.2432,5.2404,5.2406,5.2395,5.2376,5.237,5.2359,5.2355,5.2343,5.2337,5.2328,5.2302,5.2286,5.2305,5.2278,5.2294,5.2295,5.2299,5.2299,5.2362,5.2296,5.2296,5.2296,5.2296,0,5.2491,5.2498,5.2461,5.2464,5.2471,5.2441,5.2449,5.2434,5.2418,5.2416,5.2387,5.2386,5.2352,5.2347,5.2327,5.233,5.2327,5.2316,5.2311,5.2319,5.232,5.2315,5.2312,5.2298,5.2297,5.2297,5.2297,0,5.2548,5.2523,5.2526,5.2499,5.2493,5.2499,5.2476,5.2477,5.2459,5.2458,5.2456,5.2427,5.242,5.2394,5.238,5.2366,5.2376,5.2365,5.2382,5.2379,5.2396,5.2395,5.2458,5.2464,5.2395,5.2396,5.2397,0,5.2577,5.2582,5.2556,5.2554,5.2544,5.254,5.2535,5.2506,5.2501,5.2482,5.2486,5.2477,5.2468,5.2459,5.2436,5.2426,5.2414,5.2437,5.2413,5.2421,5.2415,5.2415,5.2415,5.2442,5.2443,5.2444,5.2445,0,5.2632,5.262,5.2614,5.2604,5.2598,5.2589,5.2577,5.2577,5.2545,5.2541,5.2534,5.2528,5.2515,5.2506,5.2492,5.2479,5.2457,5.2453,5.2456,5.2464,5.2474,5.2469,5.2397,5.2451,5.245,5.245,5.245,5.2449,5.2676,5.2679,5.2662,5.2656,5.2644,5.2635,5.2635,5.2617,5.2611,5.2599,5.2582,5.2578,5.256,5.254,5.2529,5.2525,5.2512,5.2516,5.2518,5.2519,5.2523,5.2475,5.2522,5.2522,5.2522,5.2521,5.2521,0,5.2729,5.2717,5.2712,5.2698,5.2693,5.2673,5.266,5.2657,5.2654,5.264,5.2632,5.2625,5.2617,5.2594,5.2584,5.2585,5.2574,5.2583,5.2583,5.258,5.2535,5.2534,5.2592,5.2592,5.2592,5.2592,5.2592,5.2592,5.2757,5.2761,5.2747,5.2746,5.2733,5.2729,5.2723,5.2714,5.2703,5.2696,5.269,5.2676,5.2658,5.2646,5.2638,5.2632,5.2629,5.2642,5.2632,5.259,5.2583,5.2577,5.2575,5.2641,5.2641,5.2677,5.2677,5.2677]}]]